QA45 YPPH-YGEL

Flight info

Callsign QA45
Flight time 0h 42m
Altitude 28000
Route DCT PH Y15 AVNEX Q20 ONGAR W14 GEL DCT
Aircraft 737/M-V/N

Departure

Time 2026-04-18 08:46
Airport Perth International Airport (YPPH)

Arrival

Time 2026-04-18 09:28
Airport Geraldton Airport (YGEL)
Time Latitude Longitude Altitude Speed Heading
2026-04-18 08:18 -31.94072 115.97230 63 ft 0 kts 171°
2026-04-18 08:27 -31.94062 115.97228 59 ft 3 kts 169°
2026-04-18 08:28 -31.94042 115.97223 56 ft 3 kts 164°
2026-04-18 08:28 -31.94022 115.97216 58 ft 3 kts 158°
2026-04-18 08:28 -31.94004 115.97207 56 ft 3 kts 152°
2026-04-18 08:28 -31.93986 115.97194 55 ft 3 kts 142°
2026-04-18 08:29 -31.93971 115.97179 51 ft 3 kts 129°
2026-04-18 08:29 -31.93961 115.97160 51 ft 3 kts 107°
2026-04-18 08:29 -31.93959 115.97152 51 ft 1 kts 100°
2026-04-18 08:31 -31.93961 115.97165 51 ft 6 kts 100°
2026-04-18 08:31 -31.93976 115.97224 56 ft 0 kts 128°
2026-04-18 08:32 -31.93980 115.97250 56 ft 11 kts 87°
2026-04-18 08:32 -31.93910 115.97353 58 ft 20 kts 31°
2026-04-18 08:33 -31.93824 115.97400 56 ft 6 kts
2026-04-18 08:33 -31.93823 115.97400 56 ft 0 kts
2026-04-18 08:33 -31.94072 115.97230 56 ft 0 kts 171°
2026-04-18 08:38 -31.94064 115.97229 58 ft 2 kts 171°
2026-04-18 08:38 -31.94048 115.97224 55 ft 2 kts 164°
2026-04-18 08:39 -31.94031 115.97218 56 ft 3 kts 164°
2026-04-18 08:39 -31.94011 115.97212 60 ft 3 kts 164°
2026-04-18 08:39 -31.93991 115.97204 61 ft 3 kts 151°
2026-04-18 08:39 -31.93974 115.97189 58 ft 3 kts 130°
2026-04-18 08:40 -31.93963 115.97168 55 ft 3 kts 109°
2026-04-18 08:40 -31.93962 115.97165 54 ft 0 kts 105°
2026-04-18 08:42 -31.93963 115.97207 55 ft 16 kts 80°
2026-04-18 08:42 -31.93890 115.97350 57 ft 22 kts 30°
2026-04-18 08:42 -31.93745 115.97287 53 ft 27 kts 328°
2026-04-18 08:42 -31.93570 115.97161 52 ft 32 kts 329°
2026-04-18 08:43 -31.93393 115.97037 55 ft 24 kts 328°
2026-04-18 08:43 -31.93388 115.96887 52 ft 20 kts 239°
2026-04-18 08:43 -31.93428 115.96813 52 ft 0 kts 237°
2026-04-18 08:44 -31.93440 115.96791 54 ft 8 kts 237°
2026-04-18 08:44 -31.93496 115.96686 54 ft 21 kts 232°
2026-04-18 08:44 -31.93564 115.96640 50 ft 0 kts 196°
2026-04-18 08:45 -31.93637 115.96619 54 ft 33 kts 193°
2026-04-18 08:45 -31.94112 115.96482 59 ft 106 kts 194°
2026-04-18 08:45 -31.95035 115.96211 70 ft 162 kts 194°
2026-04-18 08:45 -31.96117 115.95889 563 ft 165 kts 196°
2026-04-18 08:46 -31.97252 115.95534 1071 ft 170 kts 197°
2026-04-18 08:46 -31.98408 115.95152 1655 ft 171 kts 195°
2026-04-18 08:46 -31.99531 115.94794 2388 ft 164 kts 195°
2026-04-18 08:46 -32.00638 115.94439 2872 ft 162 kts 194°
2026-04-18 08:47 -32.01705 115.94100 3369 ft 157 kts 194°
2026-04-18 08:47 -32.02702 115.93562 3682 ft 165 kts 220°
2026-04-18 08:47 -32.03294 115.92392 3929 ft 177 kts 258°
2026-04-18 08:47 -32.03191 115.90932 4264 ft 188 kts 288°
2026-04-18 08:48 -32.02752 115.89490 4841 ft 182 kts 291°
2026-04-18 08:48 -32.02293 115.88092 5312 ft 186 kts 291°
2026-04-18 08:48 -32.01802 115.86572 5712 ft 205 kts 286°
2026-04-18 08:48 -32.01582 115.84916 6480 ft 210 kts 277°
2026-04-18 08:49 -32.01435 115.83138 7115 ft 215 kts 274°
2026-04-18 08:49 -32.01353 115.81390 7859 ft 223 kts 276°
2026-04-18 08:49 -32.01148 115.79508 8302 ft 241 kts 278°
2026-04-18 08:49 -32.00941 115.77531 9061 ft 248 kts 277°
2026-04-18 08:50 -32.00695 115.75430 9520 ft 269 kts 279°
2026-04-18 08:50 -32.00332 115.73199 10158 ft 282 kts 282°
2026-04-18 08:50 -31.99915 115.70923 10923 ft 286 kts 281°
2026-04-18 08:50 -31.99529 115.68611 11762 ft 290 kts 281°
2026-04-18 08:51 -31.99094 115.66231 12324 ft 304 kts 282°
2026-04-18 08:51 -31.98665 115.63738 12917 ft 316 kts 281°
2026-04-18 08:51 -31.98224 115.61183 13523 ft 325 kts 281°
2026-04-18 08:51 -31.97742 115.58552 14128 ft 330 kts 282°
2026-04-18 08:52 -31.97250 115.55894 14699 ft 334 kts 281°
2026-04-18 08:52 -31.96752 115.53182 15290 ft 343 kts 283°
2026-04-18 08:52 -31.95844 115.50554 15909 ft 352 kts 295°
2026-04-18 08:52 -31.94701 115.47976 16531 ft 359 kts 296°
2026-04-18 08:53 -31.93541 115.45391 17157 ft 365 kts 296°
2026-04-18 08:53 -31.92084 115.42911 17812 ft 374 kts 309°
2026-04-18 08:53 -31.90081 115.40897 18469 ft 384 kts 323°
2026-04-18 08:53 -31.87640 115.39523 19065 ft 395 kts 337°
2026-04-18 08:54 -31.85005 115.38525 19658 ft 400 kts 338°
2026-04-18 08:54 -31.82333 115.37557 20254 ft 404 kts 338°
2026-04-18 08:54 -31.80552 115.36905 20645 ft 406 kts 338°
2026-04-18 08:54 -31.76930 115.35550 21468 ft 409 kts 338°
2026-04-18 08:55 -31.75119 115.34892 21881 ft 412 kts 340°
2026-04-18 08:55 -31.72250 115.34404 22533 ft 421 kts 354°
2026-04-18 08:55 -31.69298 115.34621 23203 ft 427 kts
2026-04-18 08:55 -31.66354 115.35194 23836 ft 432 kts 12°
2026-04-18 08:56 -31.63542 115.36489 24402 ft 437 kts 24°
2026-04-18 08:56 -31.60835 115.38138 24973 ft 438 kts 25°
2026-04-18 08:56 -31.58165 115.39783 25548 ft 437 kts 25°
2026-04-18 08:56 -31.55467 115.41422 26125 ft 436 kts 24°
2026-04-18 08:57 -31.50087 115.44668 27331 ft 433 kts 25°
2026-04-18 08:57 -31.47419 115.46292 27907 ft 432 kts 25°
2026-04-18 08:57 -31.44729 115.47922 28130 ft 441 kts 25°
2026-04-18 08:58 -31.41948 115.49596 28125 ft 455 kts 25°
2026-04-18 08:58 -31.39087 115.51324 28139 ft 469 kts 25°
2026-04-18 08:58 -31.36140 115.53109 28132 ft 483 kts 25°
2026-04-18 08:58 -31.33148 115.54917 28141 ft 496 kts 25°
2026-04-18 08:59 -31.30036 115.56792 28135 ft 509 kts 25°
2026-04-18 08:59 -31.26876 115.58697 28112 ft 511 kts 25°
2026-04-18 08:59 -31.20545 115.62513 28133 ft 512 kts 25°
2026-04-18 09:00 -31.14206 115.66319 28132 ft 511 kts 25°
2026-04-18 09:00 -31.07878 115.70121 28133 ft 512 kts 25°
2026-04-18 09:01 -31.01543 115.73915 28127 ft 511 kts 25°
2026-04-18 09:01 -30.95248 115.77683 28110 ft 510 kts 25°
2026-04-18 09:02 -30.88895 115.81397 28107 ft 508 kts 19°
2026-04-18 09:02 -30.85535 115.82585 28118 ft 503 kts
2026-04-18 09:02 -30.82081 115.83026 28119 ft 497 kts 356°
2026-04-18 09:03 -30.75423 115.81741 28122 ft 482 kts 335°
2026-04-18 09:03 -30.69521 115.78192 28120 ft 475 kts 325°
2026-04-18 09:04 -30.63786 115.74354 28122 ft 475 kts 325°
2026-04-18 09:04 -30.58090 115.70550 28121 ft 475 kts 325°
2026-04-18 09:05 -30.52357 115.66725 28123 ft 476 kts 325°
2026-04-18 09:05 -30.46609 115.62897 28112 ft 476 kts 325°
2026-04-18 09:06 -30.40849 115.59065 28104 ft 476 kts 325°
2026-04-18 09:06 -30.35136 115.55269 28101 ft 476 kts 325°
2026-04-18 09:07 -30.29391 115.51458 28106 ft 475 kts 325°
2026-04-18 09:07 -30.23650 115.47655 28108 ft 475 kts 325°
2026-04-18 09:08 -30.17914 115.43860 28099 ft 475 kts 325°
2026-04-18 09:08 -30.12168 115.40063 28098 ft 476 kts 325°
2026-04-18 09:09 -30.06330 115.36495 28107 ft 478 kts 329°
2026-04-18 09:09 -30.00350 115.33115 28102 ft 476 kts 328°
2026-04-18 09:10 -29.97406 115.31334 27966 ft 480 kts 327°
2026-04-18 09:10 -29.94482 115.29527 27711 ft 473 kts 327°
2026-04-18 09:10 -29.91603 115.27706 27451 ft 472 kts 326°
2026-04-18 09:10 -29.88729 115.25886 27205 ft 470 kts 326°
2026-04-18 09:11 -29.85900 115.24097 26903 ft 455 kts 326°
2026-04-18 09:11 -29.83156 115.22370 26463 ft 445 kts 326°
2026-04-18 09:11 -29.80464 115.20681 25956 ft 436 kts 327°
2026-04-18 09:11 -29.77822 115.19029 25468 ft 428 kts 326°
2026-04-18 09:12 -29.75227 115.17409 24991 ft 421 kts 327°
2026-04-18 09:12 -29.72669 115.15817 24516 ft 414 kts 327°
2026-04-18 09:12 -29.70182 115.14274 24063 ft 408 kts 327°
2026-04-18 09:12 -29.67697 115.12735 23596 ft 403 kts 327°
2026-04-18 09:13 -29.65249 115.11222 23058 ft 397 kts 327°
2026-04-18 09:13 -29.62831 115.09730 22528 ft 392 kts 327°
2026-04-18 09:13 -29.60439 115.08257 22012 ft 387 kts 327°
2026-04-18 09:13 -29.58080 115.06808 21494 ft 381 kts 327°
2026-04-18 09:14 -29.55767 115.05390 20984 ft 373 kts 327°
2026-04-18 09:14 -29.53496 115.04003 20489 ft 366 kts 327°
2026-04-18 09:14 -29.51258 115.02640 20009 ft 360 kts 327°
2026-04-18 09:14 -29.49062 115.01306 19538 ft 354 kts 327°
2026-04-18 09:15 -29.46900 114.99996 19053 ft 349 kts 328°
2026-04-18 09:15 -29.44766 114.98705 18595 ft 344 kts 328°
2026-04-18 09:15 -29.42660 114.97434 18100 ft 339 kts 328°
2026-04-18 09:15 -29.40584 114.96183 17579 ft 335 kts 328°
2026-04-18 09:16 -29.38556 114.94963 17071 ft 332 kts 328°
2026-04-18 09:16 -29.36521 114.93740 16564 ft 328 kts 328°
2026-04-18 09:16 -29.34523 114.92544 16050 ft 318 kts 328°
2026-04-18 09:16 -29.32588 114.91392 15541 ft 309 kts 328°
2026-04-18 09:17 -29.30704 114.90276 15040 ft 301 kts 329°
2026-04-18 09:17 -29.28852 114.89183 14438 ft 298 kts 328°
2026-04-18 09:17 -29.27016 114.88101 13851 ft 295 kts 328°
2026-04-18 09:17 -29.25195 114.87030 13195 ft 292 kts 329°
2026-04-18 09:18 -29.23428 114.85994 12584 ft 272 kts 328°
2026-04-18 09:18 -29.21804 114.85056 12044 ft 259 kts 328°
2026-04-18 09:18 -29.20343 114.83968 11546 ft 249 kts 314°
2026-04-18 09:18 -29.19214 114.82459 11090 ft 244 kts 303°
2026-04-18 09:19 -29.18284 114.80859 10634 ft 239 kts 301°
2026-04-18 09:19 -29.17386 114.79212 10179 ft 239 kts 300°
2026-04-18 09:19 -29.16533 114.77609 9693 ft 238 kts 300°
2026-04-18 09:19 -29.15693 114.76007 9192 ft 233 kts 300°
2026-04-18 09:20 -29.14878 114.74426 8680 ft 232 kts 300°
2026-04-18 09:20 -29.14068 114.72874 8177 ft 222 kts 304°
2026-04-18 09:20 -29.13091 114.71464 7670 ft 227 kts 311°
2026-04-18 09:20 -29.12055 114.70121 7182 ft 228 kts 312°
2026-04-18 09:21 -29.11023 114.68786 6697 ft 227 kts 313°
2026-04-18 09:21 -29.09989 114.67455 6200 ft 220 kts 313°
2026-04-18 09:21 -29.08936 114.66103 5721 ft 228 kts 312°
2026-04-18 09:21 -29.07889 114.64764 5236 ft 226 kts 312°
2026-04-18 09:22 -29.06840 114.63425 4858 ft 227 kts 312°
2026-04-18 09:22 -29.05783 114.62079 4487 ft 228 kts 311°
2026-04-18 09:22 -29.04552 114.60971 4180 ft 228 kts 340°
2026-04-18 09:22 -29.02967 114.60904 3946 ft 229 kts 14°
2026-04-18 09:23 -29.01450 114.61480 3710 ft 230 kts 23°
2026-04-18 09:23 -29.00007 114.62168 3463 ft 216 kts 24°
2026-04-18 09:23 -28.98679 114.62815 3201 ft 200 kts 25°
2026-04-18 09:23 -28.97400 114.63430 3098 ft 200 kts 26°
2026-04-18 09:24 -28.96118 114.64029 3094 ft 196 kts 24°
2026-04-18 09:24 -28.94871 114.64621 3092 ft 197 kts 25°
2026-04-18 09:24 -28.93586 114.65232 3017 ft 200 kts 24°
2026-04-18 09:24 -28.92283 114.65756 2937 ft 197 kts 20°
2026-04-18 09:25 -28.90976 114.66158 2772 ft 186 kts 18°
2026-04-18 09:25 -28.89798 114.66499 2562 ft 164 kts 19°
2026-04-18 09:25 -28.88745 114.66893 2351 ft 153 kts 22°
2026-04-18 09:25 -28.87750 114.67299 2089 ft 150 kts 25°
2026-04-18 09:26 -28.86788 114.67699 1861 ft 148 kts 24°
2026-04-18 09:26 -28.85807 114.68162 1559 ft 158 kts 24°
2026-04-18 09:26 -28.84803 114.68614 1280 ft 154 kts 24°
2026-04-18 09:26 -28.83800 114.69030 1051 ft 146 kts 21°
2026-04-18 09:27 -28.82829 114.69408 799 ft 153 kts 20°
2026-04-18 09:27 -28.81804 114.69784 471 ft 154 kts 21°
2026-04-18 09:27 -28.80816 114.70186 206 ft 150 kts 20°
2026-04-18 09:27 -28.79887 114.70544 116 ft 118 kts 17°
2026-04-18 09:28 -28.79331 114.70765 115 ft 58 kts 21°
2026-04-18 09:28 -28.79081 114.70850 116 ft 18 kts 17°
2026-04-18 09:28 -28.79030 114.70868 115 ft 8 kts 16°
2026-04-18 09:28 -28.78956 114.70896 114 ft 6 kts 68°
2026-04-18 09:29 -28.78996 114.70910 113 ft 13 kts 207°
2026-04-18 09:29 -28.79153 114.70829 115 ft 33 kts 201°
2026-04-18 09:29 -28.79397 114.70733 117 ft 41 kts 197°
2026-04-18 09:29 -28.79629 114.70635 116 ft 17 kts 229°
2026-04-18 09:30 -28.79617 114.70564 118 ft 14 kts 291°
2026-04-18 09:30 -28.79576 114.70424 114 ft 12 kts 286°
2026-04-18 09:30 -28.79622 114.70350 116 ft 16 kts 200°
2026-04-18 09:30 -28.79651 114.70300 117 ft 7 kts 315°
2026-04-18 09:31 -28.79623 114.70294 114 ft 0 kts 355°